TimeCDT,TemperatureF,Dew PointF,Humidity,Sea Level PressureIn,VisibilityMPH,Wind Direction,Wind SpeedMPH,Gust SpeedMPH,PrecipitationIn,Events,Conditions,WindDirDegrees,DateUTC
12:15 AM,72.7,49.1,43,29.78,10.0,South,16.1,23.0,N/A,,Clear,170,2013-04-30 05:15:00
12:35 AM,72.5,49.5,44,29.78,10.0,South,17.3,20.7,N/A,,Clear,170,2013-04-30 05:35:00
12:55 AM,72.1,49.6,45,29.78,10.0,South,12.7,-,N/A,,Clear,170,2013-04-30 05:55:00
1:15 AM,71.8,49.6,45,29.78,10.0,South,16.1,-,N/A,,Clear,170,2013-04-30 06:15:00
1:35 AM,71.6,49.6,46,29.78,10.0,South,13.8,18.4,N/A,,Clear,170,2013-04-30 06:35:00
1:55 AM,71.2,49.5,46,29.78,10.0,South,12.7,20.7,N/A,,Clear,170,2013-04-30 06:55:00
2:15 AM,71.1,49.1,46,29.78,10.0,South,13.8,19.6,N/A,,Clear,170,2013-04-30 07:15:00
2:35 AM,70.5,48.6,46,29.78,10.0,South,11.5,-,N/A,,Clear,170,2013-04-30 07:35:00
2:55 AM,70.2,48.6,46,29.78,10.0,South,11.5,17.3,N/A,,Clear,190,2013-04-30 07:55:00
3:15 AM,68.9,49.1,49,29.78,10.0,South,13.8,18.4,N/A,,Clear,170,2013-04-30 08:15:00
3:35 AM,68.4,49.5,51,29.77,10.0,South,12.7,18.4,N/A,,Clear,180,2013-04-30 08:35:00
3:55 AM,68.0,50.4,53,29.77,10.0,South,12.7,-,N/A,,Clear,170,2013-04-30 08:55:00
4:15 AM,67.1,51.1,56,29.77,10.0,South,11.5,-,N/A,,Clear,170,2013-04-30 09:15:00
4:35 AM,66.7,52.7,61,29.76,10.0,South,12.7,-,N/A,,Clear,180,2013-04-30 09:35:00
4:55 AM,66.2,53.8,64,29.75,10.0,South,13.8,18.4,N/A,,Clear,190,2013-04-30 09:55:00
5:15 AM,66.0,55.4,69,29.76,10.0,South,9.2,-,N/A,,Clear,180,2013-04-30 10:15:00
5:35 AM,65.3,55.8,71,29.76,10.0,South,9.2,-,N/A,,Clear,180,2013-04-30 10:35:00
5:55 AM,65.3,56.7,74,29.76,10.0,South,9.2,-,N/A,,Clear,180,2013-04-30 10:55:00
6:15 AM,64.6,57.4,77,29.76,10.0,South,8.1,-,N/A,,Clear,180,2013-04-30 11:15:00
6:35 AM,64.6,58.1,79,29.76,10.0,South,12.7,-,N/A,,Clear,180,2013-04-30 11:35:00
6:55 AM,64.0,58.5,82,29.77,10.0,South,12.7,19.6,N/A,,Clear,180,2013-04-30 11:55:00
7:15 AM,63.7,58.6,84,29.77,10.0,South,12.7,19.6,N/A,,Clear,170,2013-04-30 12:15:00
7:35 AM,63.5,59.0,85,29.77,10.0,South,11.5,-,N/A,,Clear,170,2013-04-30 12:35:00
7:55 AM,63.9,59.0,84,29.77,10.0,South,12.7,18.4,N/A,,Clear,170,2013-04-30 12:55:00
8:15 AM,64.8,59.2,82,29.77,10.0,South,12.7,18.4,N/A,,Mostly Cloudy,170,2013-04-30 13:15:00
8:35 AM,65.5,59.2,80,29.78,10.0,South,17.3,23.0,N/A,,Mostly Cloudy,180,2013-04-30 13:35:00
8:55 AM,67.3,59.0,75,29.77,10.0,South,16.1,21.9,N/A,,Scattered Clouds,170,2013-04-30 13:55:00
9:15 AM,69.1,59.0,70,29.77,10.0,South,15.0,20.7,N/A,,Clear,170,2013-04-30 14:15:00
9:35 AM,70.5,58.3,65,29.77,10.0,South,15.0,20.7,N/A,,Clear,170,2013-04-30 14:35:00
9:55 AM,72.3,57.6,60,29.77,10.0,South,16.1,21.9,N/A,,Clear,190,2013-04-30 14:55:00
10:15 AM,73.9,56.8,55,29.76,10.0,South,17.3,25.3,N/A,,Clear,180,2013-04-30 15:15:00
10:35 AM,75.7,55.4,49,29.77,10.0,South,15.0,21.9,N/A,,Clear,190,2013-04-30 15:35:00
10:55 AM,77.4,54.0,44,29.77,10.0,SSW,12.7,-,N/A,,Clear,200,2013-04-30 15:55:00
11:15 AM,79.2,53.4,41,29.77,10.0,SSW,11.5,-,N/A,,Clear,200,2013-04-30 16:15:00
11:35 AM,80.4,51.8,37,29.76,10.0,SSW,10.4,20.7,N/A,,Clear,200,2013-04-30 16:35:00
11:55 AM,82.2,50.5,33,29.76,10.0,South,12.7,16.1,N/A,,Clear,180,2013-04-30 16:55:00
12:15 PM,83.5,49.8,31,29.76,10.0,SSW,6.9,-,N/A,,Clear,200,2013-04-30 17:15:00
12:55 PM,87.6,40.6,19,29.74,10.0,WSW,5.8,9.2,N/A,,Clear,240,2013-04-30 17:55:00
1:15 PM,88.2,41.2,19,29.73,10.0,WSW,4.6,-,N/A,,Clear,240,2013-04-30 18:15:00
1:55 PM,90.5,39.2,17,29.72,10.0,SSW,8.1,-,N/A,,Clear,210,2013-04-30 18:55:00
2:15 PM,90.9,35.4,14,29.71,10.0,WSW,8.1,-,N/A,,Clear,240,2013-04-30 19:15:00
2:35 PM,92.8,34.7,13,29.71,10.0,SW,9.2,-,N/A,,Clear,230,2013-04-30 19:35:00
2:55 PM,94.1,34.5,12,29.70,10.0,SW,5.8,-,N/A,,Clear,230,2013-04-30 19:55:00
3:35 PM,94.6,33.3,11,29.69,10.0,SW,8.1,-,N/A,,Clear,220,2013-04-30 20:35:00
3:55 PM,95.7,30.0,10,29.68,10.0,SW,4.6,16.1,N/A,,Clear,230,2013-04-30 20:55:00
4:35 PM,96.8,26.1,8,29.66,10.0,SW,10.4,17.3,N/A,,Clear,230,2013-04-30 21:35:00
4:55 PM,97.7,19.6,6,29.66,10.0,South,8.1,-,N/A,,Clear,190,2013-04-30 21:55:00
5:15 PM,97.0,18.0,6,29.65,10.0,SSW,10.4,16.1,N/A,,Clear,210,2013-04-30 22:15:00
5:35 PM,97.3,20.1,6,29.65,10.0,West,11.5,17.3,N/A,,Clear,270,2013-04-30 22:35:00
5:55 PM,97.7,17.2,5,29.65,10.0,SW,8.1,18.4,N/A,,Clear,220,2013-04-30 22:55:00
6:35 PM,95.5,17.4,6,29.64,10.0,South,9.2,-,N/A,,Clear,190,2013-04-30 23:35:00
6:55 PM,95.9,18.5,6,29.64,10.0,South,9.2,-,N/A,,Clear,180,2013-04-30 23:55:00
7:15 PM,95.7,18.7,6,29.64,10.0,South,8.1,-,N/A,,Clear,190,2013-05-01 00:15:00
7:35 PM,94.6,18.5,6,29.64,10.0,South,9.2,-,N/A,,Clear,190,2013-05-01 00:35:00
7:55 PM,91.9,40.8,17,29.65,10.0,South,17.3,27.6,N/A,,Clear,170,2013-05-01 00:55:00
8:15 PM,90.0,40.3,18,29.66,10.0,South,12.7,-,N/A,,Clear,180,2013-05-01 01:15:00
8:35 PM,88.9,36.9,16,29.66,10.0,South,17.3,-,N/A,,Clear,180,2013-05-01 01:35:00
8:55 PM,86.9,45.9,24,29.66,10.0,South,13.8,-,N/A,,Clear,170,2013-05-01 01:55:00
9:15 PM,85.5,48.4,28,29.68,10.0,South,13.8,20.7,N/A,,Clear,170,2013-05-01 02:15:00
9:35 PM,84.2,49.5,30,29.69,10.0,SSE,13.8,-,N/A,,Clear,160,2013-05-01 02:35:00
9:55 PM,83.3,50.5,32,29.71,10.0,South,16.1,23.0,N/A,,Clear,170,2013-05-01 02:55:00
10:15 PM,82.8,50.0,32,29.72,10.0,SSE,15.0,23.0,N/A,,Clear,160,2013-05-01 03:15:00
10:35 PM,81.7,50.0,33,29.73,10.0,SSE,12.7,-,N/A,,Clear,160,2013-05-01 03:35:00
10:55 PM,80.6,49.5,34,29.74,10.0,SSE,12.7,-,N/A,,Clear,160,2013-05-01 03:55:00
11:15 PM,80.2,49.3,34,29.74,10.0,SSE,12.7,18.4,N/A,,Clear,160,2013-05-01 04:15:00
11:35 PM,79.7,49.1,34,29.75,10.0,SSE,9.2,-,N/A,,Clear,160,2013-05-01 04:35:00
11:55 PM,78.1,48.7,36,29.78,10.0,East,12.7,18.4,N/A,,Clear,80,2013-05-01 04:55:00